Date String (YYYY-MM-DD hh:mm:ss) UTC,Instrument flags,Ambient pressure (hPa),Sample flow (lpm),Bypass flow (lpm),Sample temperature (°C),Ambient temperature (°C),ASC tube jacket temperature (°C),LED temperature (°C),Box temperature (°C),Sample RH (%),Span deviation,Mass concentration (μg/m³),Mass concentration (μg/m³),Mass concentration (μg/m³)
DateTimeUTC,F1_M11,P_M11,Q1_M11,Q2_M11,T1_M11,T2_M11,T3_M11,T4_M11,T5_M11,U1_M11,ZSPAN_M11,X0_M11,X2_M11,X1_M11
2022-04-02 00:00:00,,0821.6,5.00,0.00,27.8,27.1,00.0,36.7,29.6,07.4,0000.0,0009.18,0003.47,0002.66
2022-04-02 00:01:00,,0821.7,5.01,0.00,27.8,27.1,00.0,36.7,29.7,07.3,0000.0,0010.44,0003.60,0002.83
2022-04-02 00:02:00,,0821.7,4.99,0.00,27.8,27.1,00.0,36.7,29.7,07.4,0000.0,0011.27,0003.70,0002.98
2022-04-02 00:03:00,,0821.8,4.99,0.00,27.8,27.1,00.0,36.7,29.7,07.4,0000.0,0011.60,0003.83,0003.12
2022-04-02 00:04:00,,0821.7,5.00,0.00,27.8,27.1,00.0,36.7,29.7,06.6,0000.0,0011.72,0003.90,0003.18
2022-04-02 00:05:00,,0821.6,5.01,0.00,27.9,27.1,00.0,36.7,29.7,06.1,0000.0,0011.57,0003.90,0003.19
2022-04-02 00:06:00,,0821.7,5.01,0.00,27.9,27.1,00.0,36.7,29.7,06.0,0000.0,0011.38,0003.90,0003.17
2022-04-02 00:07:00,,0821.8,4.99,0.00,27.9,27.2,00.0,36.7,29.7,05.7,0000.0,0011.13,0003.84,0003.10
2022-04-02 00:08:00,,0821.7,5.01,0.00,27.9,27.2,00.0,36.8,29.7,05.9,0000.0,0011.03,0003.78,0003.01
2022-04-02 00:09:00,,0821.7,5.00,0.00,27.9,27.2,00.0,36.8,29.7,05.8,0000.0,0010.99,0003.73,0002.91
2022-04-02 00:10:00,,0821.6,5.00,0.00,27.9,27.2,00.0,36.8,29.7,05.8,0000.0,0010.52,0003.68,0002.77
2022-04-02 00:11:00,,0821.4,4.99,0.00,27.9,27.2,00.0,36.8,29.7,05.5,0000.0,0009.38,0003.59,0002.60
2022-04-02 00:12:00,,0821.4,5.00,0.00,27.9,27.2,00.0,36.8,29.7,05.7,0000.0,0008.23,0003.47,0002.40
2022-04-02 00:13:00,,0821.6,5.02,0.00,27.9,27.2,00.0,36.8,29.7,05.9,0000.0,0007.10,0003.37,0002.24
2022-04-02 00:14:00,,0821.7,4.99,0.00,27.9,27.2,00.0,36.8,29.7,06.6,0000.0,0006.64,0003.29,0002.16
2022-04-02 00:15:00,,0821.7,4.99,0.00,27.9,27.2,00.0,36.8,29.8,06.6,0000.0,0006.43,0003.25,0002.12
2022-04-02 00:16:00,,0821.5,5.00,0.00,27.9,27.2,00.0,36.8,29.7,06.2,0000.0,0006.04,0003.23,0002.14
2022-04-02 00:17:00,,0821.6,4.99,0.00,27.9,27.2,00.0,36.8,29.7,05.4,0000.0,0005.98,0003.17,0002.10
2022-04-02 00:18:00,,0821.7,4.99,0.00,27.9,27.2,00.0,36.8,29.7,05.3,0000.0,0006.78,0003.16,0002.08
2022-04-02 00:19:00,,0821.9,5.04,0.00,27.9,27.2,00.0,36.8,29.7,05.3,0000.0,0007.30,0003.14,0002.06
2022-04-02 00:20:00,,0821.7,5.01,0.00,27.9,27.2,00.0,36.8,29.7,05.3,0000.0,0007.22,0003.12,0002.03
2022-04-02 00:21:00,,0821.9,5.00,0.00,27.9,27.2,00.0,36.8,29.7,05.3,0000.0,0006.89,0003.03,0002.02
2022-04-02 00:22:00,,0822.0,5.00,0.00,27.9,27.2,00.0,36.8,29.7,05.2,0000.0,0006.86,0003.02,0002.01
2022-04-02 00:23:00,,0821.8,5.00,0.00,27.9,27.2,00.0,36.8,29.7,05.2,0000.0,0006.82,0003.02,0002.01
2022-04-02 00:24:00,,0821.9,5.01,0.00,27.9,27.2,00.0,36.8,29.7,05.2,0000.0,0007.03,0003.05,0001.99
2022-04-02 00:25:00,,0821.8,4.99,0.00,27.9,27.2,00.0,36.8,29.7,05.3,0000.0,0006.95,0002.97,0001.89
2022-04-02 00:26:00,,0821.9,4.99,0.00,27.9,27.2,00.0,36.8,29.7,05.3,0000.0,0006.93,0002.89,0001.78
2022-04-02 00:27:00,,0821.8,5.00,0.00,27.9,27.1,00.0,36.8,29.7,05.2,0000.0,0006.97,0002.84,0001.69
2022-04-02 00:28:00,,0821.8,5.01,0.00,27.9,27.2,00.0,36.8,29.7,05.1,0000.0,0006.96,0002.85,0001.66
2022-04-02 00:29:00,,0821.9,5.00,0.00,27.9,27.2,00.0,36.8,29.7,05.0,0000.0,0006.43,0002.85,0001.65
2022-04-02 00:30:00,,0822.0,4.99,0.00,27.9,27.2,00.0,36.8,29.7,05.0,0000.0,0005.84,0002.88,0001.65
2022-04-02 00:31:00,,0821.9,4.99,0.00,27.9,27.2,00.0,36.8,29.7,05.2,0000.0,0005.91,0002.87,0001.63
2022-04-02 00:32:00,,0821.8,4.99,0.00,27.9,27.2,00.0,36.8,29.7,05.2,0000.0,0006.14,0002.95,0001.61
2022-04-02 00:33:00,,0821.7,5.01,0.00,27.9,27.1,00.0,36.8,29.7,05.1,0000.0,0006.24,0002.97,0001.60
2022-04-02 00:34:00,,0821.8,5.01,0.00,27.9,27.1,00.0,36.8,29.7,05.0,0000.0,0006.16,0002.93,0001.59
2022-04-02 00:35:00,,0821.9,5.00,0.00,27.9,27.1,00.0,36.8,29.7,05.1,0000.0,0005.95,0002.87,0001.56
2022-04-02 00:36:00,,0822.0,5.00,0.00,27.9,27.1,00.0,36.8,29.7,05.2,0000.0,0005.68,0002.77,0001.54
2022-04-02 00:37:00,,0822.0,4.99,0.00,27.9,27.1,00.0,36.8,29.6,05.1,0000.0,0005.41,0002.67,0001.52
2022-04-02 00:38:00,,0822.0,5.00,0.00,27.9,27.1,00.0,36.8,29.7,05.2,0000.0,0005.84,0002.60,0001.49
2022-04-02 00:39:00,,0822.0,5.00,0.00,27.9,27.1,00.0,36.8,29.7,05.3,0000.0,0006.30,0002.59,0001.49
2022-04-02 00:40:00,,0822.0,5.01,0.00,27.9,27.1,00.0,36.8,29.7,05.3,0000.0,0006.34,0002.61,0001.48
2022-04-02 00:41:00,,0821.9,5.00,0.00,27.8,27.1,00.0,36.8,29.6,05.2,0000.0,0006.26,0002.61,0001.47
2022-04-02 00:42:00,,0821.8,5.00,0.00,27.9,27.1,00.0,36.8,29.6,05.2,0000.0,0006.05,0002.62,0001.46
2022-04-02 00:43:00,,0821.8,5.01,0.00,27.9,27.0,00.0,36.8,29.6,05.3,0000.0,0006.20,0002.66,0001.46
2022-04-02 00:44:00,,0822.0,5.00,0.00,27.8,27.0,00.0,36.8,29.6,04.8,0000.0,0006.29,0002.67,0001.46
2022-04-02 00:45:00,,0821.9,5.00,0.00,27.8,27.0,00.0,36.8,29.6,05.0,0000.0,0007.04,0002.68,0001.46
2022-04-02 00:46:00,,0821.8,5.01,0.00,27.8,27.0,00.0,36.8,29.6,05.2,0000.0,0008.08,0002.79,0001.48
2022-04-02 00:47:00,,0822.1,4.99,0.00,27.8,27.0,00.0,36.8,29.6,05.2,0000.0,0008.56,0002.90,0001.48
2022-04-02 00:48:00,,0822.1,5.00,0.00,27.8,26.9,00.0,36.8,29.6,05.5,0000.0,0008.65,0002.95,0001.49
2022-04-02 00:49:00,,0822.2,5.01,0.00,27.8,27.0,00.0,36.8,29.6,05.5,0000.0,0008.42,0002.97,0001.49
2022-04-02 00:50:00,,0822.1,5.00,0.00,27.8,27.0,00.0,36.8,29.6,05.5,0000.0,0008.12,0003.01,0001.49
2022-04-02 00:51:00,,0822.2,5.00,0.00,27.8,27.0,00.0,36.8,29.6,05.4,0000.0,0008.04,0002.97,0001.49
2022-04-02 00:52:00,,0822.2,5.00,0.00,27.8,27.0,00.0,36.8,29.6,05.5,0000.0,0007.95,0002.88,0001.47
2022-04-02 00:53:00,,0822.3,4.99,0.00,27.8,26.9,00.0,36.8,29.5,05.5,0000.0,0007.97,0002.88,0001.46
2022-04-02 00:54:00,,0822.2,5.01,0.00,27.8,26.9,00.0,36.8,29.5,05.6,0000.0,0008.03,0002.78,0001.45
2022-04-02 00:55:00,,0822.1,5.00,0.00,27.8,26.9,00.0,36.8,29.5,05.5,0000.0,0007.87,0002.70,0001.44
2022-04-02 00:56:00,,0822.2,5.00,0.00,27.8,26.9,00.0,36.8,29.5,05.5,0000.0,0007.49,0002.66,0001.43
2022-04-02 00:57:00,,0822.3,5.01,0.00,27.8,26.9,00.0,36.8,29.5,05.5,0000.0,0006.25,0002.59,0001.41
2022-04-02 00:58:00,,0822.2,4.99,0.00,27.8,26.9,00.0,36.8,29.5,05.6,0000.0,0005.46,0002.56,0001.40
2022-04-02 00:59:00,,0822.2,4.99,0.00,27.7,26.9,00.0,36.8,29.5,05.7,0000.0,0006.36,0002.62,0001.40
